Current weather by "City, St" or "zip code"  
 

Current Conditions: Hulett Municipal Airport, WY

Mostly Cloudy


30.0 F

Last Updated on Feb 25 2024, 3:15 am MST
Humidity: 75%
Wind Speed: SW 8.1 mph
Barometer 29.71 in
Dewpoint: 23.0 F
Visibility: 10.00 mi
Precip: --
Heat Index: NA
Wind Chill: 22 F
Current conditions at:

Hulett Municipal Airport, WY (KW43)

Lat: 44.6629 Lon: 104.5678

Local Radar Image active severe weather and emergency alerts image image weather storm and storm spotter reports image weather observation monitoring service image
Local
Radar
Active
Alerts
Storm Reports Obs
Monitoring

Sign-up For Email & Text Message Weather Alert Notification Services



Advertise Here

Observation History for Hulett Municipal Airport, WY


Time Wind
(mph)
Vis
(mi)
Weather Precip (in) Temperature (F) Relative
Humidity
Wind
Chill
(F)
Heat
Index
(F)
Pressure
Air Dwpt altimeter
(in)
sea level
(mb)
Rmks
3:15 am MST SW 8.1 10.00 Mostly Cloudy -- 30.0 23.0 75% 22 NA 29.71 M
2:55 am MST S 8.1 10.00 Fair -- 28.0 21.2 74% 20 NA 29.72 M
1:55 am MST S 10.4 10.00 Fair -- 32.0 23.0 69% 24 NA 29.74 M
1:35 am MST S 10.4 10.00 Fair -- 32.0 23.0 69% 24 NA 29.75 M
12:55 am MST S 3.5 10.00 Fair -- 32.0 21.2 64% NA NA 29.76 M
11:55 pm MST S 5.8 10.00 Fair -- 32.0 21.2 64% 26 NA 29.77 M
10:35 pm MST N 0.0 10.00 Fair -- 34.0 21.2 60% NA NA 29.77 M
9:35 pm MST SW 4.6 10.00 Fair -- 36.0 19.4 52% 32 NA 29.78 M
7:55 pm MST N 0.0 10.00 Mostly Cloudy -- 43.0 17.6 36% NA NA 29.77 M
6:55 pm MST N 0.0 10.00 Overcast -- 46.0 15.8 29% NA NA 29.77 M
6:15 pm MST N 0.0 10.00 Overcast -- 46.0 15.8 29% NA NA 29.76 M
4:35 pm MST NW 3.5 10.00 Overcast -- 52.0 15.8 24% NA NA 29.75 M
3:35 pm MST NW 9.2 10.00 Overcast -- 54.0 15.8 22% 51 NA 29.74 M
2:35 pm MST NW 9.2 G 17.3 10.00 Mostly Cloudy -- 52.0 14.0 22% 49 NA 29.75 M
1:15 pm MST W 18.4 G 28.8 10.00 Mostly Cloudy -- 52.0 14.0 22% 47 NA 29.78 M
11:55 am MST NW 13.8 G 24.2 10.00 Partly Cloudy -- 52.0 15.8 24% 47 NA 29.81 M
10:55 am MST W 12.7 G 24.2 10.00 Fair -- 50.0 17.6 28% 45 NA 29.83 M
9:55 am MST SW 6.9 10.00 Fair -- 46.0 17.6 32% 42 NA 29.84 M
9:15 am MST SW 9.2 10.00 Fair -- 43.0 17.6 36% 38 NA 29.86 M
8:15 am MST SW 15.0 G 20.7 10.00 Partly Cloudy -- 37.0 17.6 45% 28 NA 29.86 M
6:55 am MST SW 9.2 10.00 Fair -- 34.0 17.6 51% 27 NA 29.85 M

Regional Weather Observation


Gillette, Gillette-Campbell County Airport, WY (KGCC)

Fair
38.0 F

Spearfish / Clyde Ice, SD (KSPF)

Overcast
30.0 F

Buffalo, SD (K2WX)

NULL
38.0 F

Mondell Field, WY (KECS)

Fair
28.0 F

Ellsworth Air Force Base, SD (KRCA)

Fair
30.0 F

Rapid City, Rapid City Regional Airport, SD (KRAP)

Fair
25.0 F

Advertise Here


Advertise Here